Simultaneous Nadir Overpasses (SNOs) Predictions

Prediction of SNOs between GOES-16 and FY3D Satellite Orbit:

Table of predicted SNOs for the next 14.0 days since TLE Epoch: 4/20/2019
Index Date Time (GOES-16) GOES-16 Lat,Lon FY3D Lat,Lon Distance(km) Time Diff (sec)
1 04/20/2019 06:45:49 -0.00, -75.20 0.75, -78.57 384.28 80
2 04/21/2019 06:24:14 0.00, -75.20 -0.28, -74.00 136.77 80
3 04/22/2019 18:45:55 -0.00, -75.21 -0.91, -79.24 459.89 80
4 04/23/2019 18:29:40 -0.00, -75.21 0.12, -74.67 61.54 80
5 04/26/2019 06:32:18 -0.00, -75.23 0.04, -75.31 10.26 80
6 04/28/2019 18:32:25 0.00, -75.26 -0.15, -75.99 83.65 80
7 04/29/2019 18:16:10 0.00, -75.27 0.88, -71.43 438.74 80
8 05/01/2019 06:37:43 -0.00, -75.29 0.30, -76.63 152.80 80
9 05/02/2019 06:16:08 -0.00, -75.31 -0.73, -72.07 369.77 80
10 05/03/2019 18:37:50 0.00, -75.34 -0.41, -77.32 224.87 80




NCC Satellite Simultaneous Nadir Overpasses (SNOs) Prediction Service
